Location: Laterina
(43.5167°N, 11.7167°E)
Time: 11:04:33
(UTC+00:00)

USA 234 - Visible Passes

Search period start: 16 January 2021 00:00
Search period end: 26 January 2021 00:00
Orbit: 1098 x 1110 km, 123.0° (Epoch: 09 January)

Date Brightness Start Highest point End Pass type
(mag) Time Alt. Az. Time Alt. Az. Time Alt. Az.
16 Jan 3.7 18:03:34 35° ENE 18:05:24 42° NNE 18:11:28 10° NW visible
16 Jan 4.4 19:50:55 38° WNW 19:50:55 38° WNW 19:54:42 10° NW visible
17 Jan 4.2 17:19:06 17° ENE 17:23:08 31° NNE 17:28:44 10° NW visible
17 Jan 3.5 19:06:27 56° N 19:06:27 56° N 19:11:53 10° NW visible
17 Jan 5.7 20:53:48 14° WNW 20:53:48 14° WNW 20:54:45 10° WNW visible
18 Jan 4.4 16:35:40 10° ENE 16:40:59 27° N 16:46:19 10° NW visible
18 Jan 3.7 18:21:59 40° NE 18:22:58 42° NNE 18:29:01 10° NW visible
18 Jan 4.8 20:09:19 29° NW 20:09:19 29° NW 20:12:15 10° NW visible
19 Jan 4.2 17:37:28 21° ENE 17:40:41 32° NNE 17:46:18 10° NW visible
19 Jan 3.9 19:24:50 46° NNW 19:24:50 46° NNW 19:29:27 10° NW visible
19 Jan 5.9 21:12:10 11° WNW 21:12:10 11° WNW 21:12:18 10° WNW visible
20 Jan 4.4 16:53:13 10° ENE 16:58:32 27° N 17:03:51 10° NW visible
20 Jan 3.7 18:40:19 42° NNE 18:40:30 42° NNE 18:46:35 10° NW visible
20 Jan 5.1 20:27:39 23° NW 20:27:39 23° NW 20:29:48 10° NW visible
21 Jan 4.2 17:55:47 25° NE 17:58:14 32° NNE 18:03:50 10° NW visible
21 Jan 4.3 19:43:08 38° NNW 19:43:08 38° NNW 19:47:00 10° NW visible
22 Jan 4.4 17:11:15 12° NE 17:16:05 27° N 17:21:24 10° NW visible
22 Jan 3.8 18:58:36 41° NNE 18:58:36 41° NNE 19:04:09 10° NW visible
22 Jan 5.4 20:45:57 18° NW 20:45:57 18° NW 20:47:21 10° NW visible
23 Jan 4.2 18:14:03 28° NE 18:15:47 32° NNE 18:21:24 10° NW visible
23 Jan 4.6 20:01:23 31° NW 20:01:23 31° NW 20:04:34 10° NW visible
24 Jan 4.4 17:29:29 15° NE 17:33:37 27° N 17:38:57 10° NW visible
24 Jan 4.1 19:16:50 39° N 19:16:50 39° N 19:21:42 10° NW visible
24 Jan 5.7 21:04:10 14° NW 21:04:10 14° NW 21:04:55 10° NW visible
25 Jan 4.5 16:46:11 10° NE 16:51:31 28° N 16:56:52 10° WNW visible
25 Jan 4.1 18:32:16 30° NNE 18:33:20 32° NNE 18:38:57 10° NW visible
25 Jan 5.0 20:19:36 25° NW 20:19:36 25° NW 20:22:07 10° NW visible
